Home > Weather > Saint-Denis > Past weeks

Flag for Réunion (French) Past Weather in Saint-Denis, Réunion (French) — Yesterday and Last 2 Weeks

Now
68 °F

Clear.


Feels Like: 68 °F
Forecast: 66 / 76 °F
Wind: 15 mph from East

Location: Saint-Denis / Gillot

Current Time: Jun 26, 2016 at 7:26:47 PM

Latest Report: Jun 26, 2016 at 7:00 PM


Visibility: N/A

Pressure: 30.24 "Hg

Humidity: 69%

Dew Point: 57 °F

Location of Saint-DenisLocation

Past Weather in Saint-Denis — Graph

°F

Saint-Denis Temperature Yesterday

Maximum temperature yesterday: 77 °F (at 11:30 AM)
Minimum temperature yesterday: 66 °F (at 12:30 AM)
Average temperature yesterday: 71 °F

High & Low Weather Summary for the Past Weeks

 TemperatureHumidityPressure
High81 °F (Jun 12, 10:30 AM)94% (Jun 15, 10:00 AM)30.30 "Hg (Jun 15, 10:00 AM)
Low63 °F (Jun 12, 5:00 AM)42% (Jun 18, 12:30 PM)30.09 "Hg (Jun 12, 6:23 AM)
Average71 °F70%30.17 "Hg
* Reported Jun 11 6:00 PM — Jun 26 6:00 PM, Saint-Denis, Weather by CustomWeather, © 2016

Note: Actual official high and low records may vary slightly from our data, if they occured in-between our weather recording intervals... More about our weather records

Advertising

Saint-Denis Weather History for the Previous 24 Hours

Scroll right to see more
 ConditionsComfort  
Time TempWeatherWind HumidityBarometerVisibility
6:00 PM
Sun, Jun 26
70 °FClear.17 mph64%30.24 "HgN/A
5:30 PM72 °FPassing clouds.17 mph57%30.21 "HgN/A
5:00 PM73 °FPassing clouds.18 mph57%30.21 "HgN/A
4:30 PM73 °FPassing clouds.18 mph57%30.21 "HgN/A
4:00 PM75 °FPassing clouds.21 mph47%30.21 "HgN/A
3:30 PM75 °FPassing clouds.20 mph47%30.21 "HgN/A
3:00 PM75 °FPassing clouds.22 mph50%30.21 "HgN/A
2:30 PM75 °FPassing clouds.24 mph54%30.21 "HgN/A
2:00 PM75 °FScattered clouds.23 mph54%30.21 "HgN/A
1:30 PM75 °FScattered clouds.23 mph54%30.24 "HgN/A
1:00 PM73 °FPartly sunny.17 mph53%30.24 "HgN/A
12:30 PM72 °FPartly sunny.24 mph65%30.27 "HgN/A
12:00 PM72 °FPartly sunny.28 mph65%30.27 "HgN/A
11:30 AM73 °FScattered clouds.24 mph57%30.27 "HgN/A
11:00 AM75 °FPassing clouds.23 mph50%30.27 "HgN/A
10:30 AM75 °FPassing clouds.20 mph50%30.30 "HgN/A
10:00 AM75 °FPassing clouds.21 mph50%30.30 "HgN/A
9:00 AM72 °FPassing clouds.18 mph53%30.30 "HgN/A
8:30 AM72 °FPassing clouds.17 mph53%30.30 "HgN/A
8:00 AM70 °FScattered clouds.15 mph53%30.27 "HgN/A
7:30 AM68 °FScattered clouds.14 mph56%30.27 "HgN/A
7:00 AM68 °FPassing clouds.15 mph60%30.27 "HgN/A
6:30 AM68 °FPassing clouds.17 mph60%30.27 "HgN/A
6:00 AM68 °FPassing clouds.17 mph60%30.24 "HgN/A
5:30 AM68 °FClear.17 mph60%30.24 "HgN/A
5:00 AM68 °FPassing clouds.18 mph64%30.24 "HgN/A
4:30 AM68 °FPassing clouds.22 mph60%30.24 "HgN/A
4:00 AM68 °FClear.13 mph49%30.24 "HgN/A
3:30 AM68 °FClear.20 mph53%30.24 "HgN/A
3:00 AM68 °FClear.18 mph60%30.24 "HgN/A
2:30 AM68 °FClear.15 mph60%30.24 "HgN/A
2:00 AM68 °FClear.15 mph64%30.27 "HgN/A
1:30 AM68 °FClear.24 mph64%30.27 "HgN/A
1:00 AM68 °FClear.21 mph64%30.27 "HgN/A
12:30 AM68 °FClear.21 mph64%30.27 "HgN/A
12:00 AM68 °FClear.22 mph69%30.27 "HgN/A
11:30 PM
Sat, Jun 25
68 °FClear.22 mph69%30.27 "HgN/A
11:00 PM68 °FClear.21 mph73%30.27 "HgN/A
10:30 PM70 °FClear.24 mph69%30.27 "HgN/A
10:00 PM70 °FPassing clouds.23 mph69%30.27 "HgN/A
9:30 PM70 °FClear.20 mph69%30.27 "HgN/A
9:00 PM70 °FMild.18 mph64%30.27 "HgN/A
8:30 PM70 °FClear.21 mph64%30.24 "HgN/A
8:00 PM70 °FClear.23 mph69%30.24 "HgN/A
7:30 PM70 °FPassing clouds.23 mph69%30.24 "HgN/A
7:00 PM70 °FPassing clouds.22 mph73%30.24 "HgN/A
Weather by CustomWeather, © 2016

See weather overviewHow to use our weather pages